Home   Weather   Rotterdam   Past weeks

Flag for Netherlands Past Weather in Rotterdam, Netherlands — Yesterday and Last 2 Weeks

Now
55 °F

Passing clouds.


Feels Like: 55 °F
Forecast: 51 / 68 °F
Wind: 3 mph from South

Location: Rotterdam Zestienhoven Airport

Current Time: Sep 26, 2016 at 5:42:03 AM

Latest Report: Sep 26, 2016 at 4:55 AM


Visibility: N/A

Pressure: 30.18 "Hg

Humidity: 94%

Dew Point: 54 °F

Location of RotterdamLocation

Past Weather in Rotterdam — Graph

°F

Rotterdam Temperature Yesterday

Maximum temperature yesterday: 72 °F (at 12:25 PM)
Minimum temperature yesterday: 57 °F (at 6:55 AM)
Average temperature yesterday: 63 °F

High & Low Weather Summary for the Past Weeks

 TemperatureHumidityPressure
High90 °F (Sep 13, 3:25 PM)100% (Sep 11, 5:55 AM)30.27 "Hg (Sep 11, 5:55 AM)
Low48 °F (Sep 22, 6:25 AM)36% (Sep 13, 3:25 PM)29.77 "Hg (Sep 15, 3:25 PM)
Average65 °F76%30.02 "Hg
* Reported Sep 11 4:25 AM — Sep 26 4:25 AM, Rotterdam, Weather by CustomWeather, © 2016

Note: Actual official high and low records may vary slightly from our data, if they occured in-between our weather recording intervals... More about our weather records

Advertising

Rotterdam Weather History for the Previous 24 Hours

Scroll right to see more
 ConditionsComfort  
Time TempWeatherWind HumidityBarometerVisibility
4:25 AM
Mon, Sep 26
55 °FPassing clouds.3 mph94%30.18 "HgN/A
3:55 AM57 °FPassing clouds.5 mph88%30.18 "HgN/A
3:25 AM57 °FCool.3 mph88%30.18 "HgN/A
2:55 AM57 °FPassing clouds.1 mph88%30.15 "HgN/A
2:25 AM57 °FPassing clouds.3 mph88%30.15 "HgN/A
1:55 AM54 °FCool.7 mph94%30.15 "HgN/A
1:25 AM57 °FCool.6 mph82%30.15 "HgN/A
12:55 AM57 °FPassing clouds.7 mph82%30.15 "HgN/A
12:25 AM59 °FPartly cloudy.6 mph82%30.15 "HgN/A
11:55 PM
Sun, Sep 25
59 °FPassing clouds.7 mph82%30.12 "HgN/A
11:25 PM61 °FPartly cloudy.6 mph83%30.12 "HgN/A
10:55 PM59 °FCool.6 mph82%30.12 "HgN/A
10:25 PM61 °FCool.8 mph77%30.12 "HgN/A
9:55 PM61 °FClear.9 mph77%30.12 "HgN/A
9:25 PM59 °FPassing clouds.9 mph82%30.09 "HgN/A
8:55 PM59 °FCool.8 mph82%30.09 "HgN/A
8:25 PM61 °FCool.8 mph77%30.09 "HgN/A
7:55 PM63 °FClear.9 mph73%30.07 "HgN/A
7:25 PM63 °FClear.10 mph77%30.07 "HgN/A
6:55 PM63 °FClear.10 mph73%30.07 "HgN/A
6:25 PM63 °FClear.13 mph73%30.07 "HgN/A
5:55 PM64 °FLight rain. Passing clouds.14 mph64%30.04 "HgN/A
5:25 PM64 °FClear.14 mph64%30.04 "HgN/A
4:55 PM64 °FLight rain. Scattered clouds.16 mph78%30.01 "HgN/A
4:25 PM66 °FMore clouds than sun.15 mph73%30.01 "HgN/A
3:55 PM66 °FMore clouds than sun.15 mph73%29.98 "HgN/A
3:25 PM68 °FOvercast.14 mph69%29.98 "HgN/A
2:55 PM68 °FOvercast.10 mph69%29.98 "HgN/A
2:25 PM72 °FPartly sunny.13 mph65%29.95 "HgN/A
1:55 PM72 °FClear.14 mph61%29.95 "HgN/A
1:25 PM72 °FClear.13 mph57%29.95 "HgN/A
12:55 PM72 °FMild.12 mph57%29.95 "HgN/A
12:25 PM72 °FClear.15 mph57%29.95 "HgN/A
11:55 AM70 °FClear.14 mph57%29.95 "HgN/A
11:25 AM68 °FMild.13 mph60%29.95 "HgN/A
10:55 AM66 °FClear.14 mph64%29.92 "HgN/A
10:25 AM64 °FMild.14 mph68%29.95 "HgN/A
9:55 AM63 °FClear.13 mph68%29.95 "HgN/A
9:25 AM61 °FCool.12 mph72%29.95 "HgN/A
8:55 AM59 °FCool.13 mph72%29.95 "HgN/A
8:25 AM59 °FCool.13 mph72%29.95 "HgN/A
7:55 AM59 °FCool.13 mph72%29.95 "HgN/A
7:25 AM57 °FCool.12 mph77%29.95 "HgN/A
6:55 AM57 °FCool.10 mph77%29.95 "HgN/A
6:25 AM59 °FCool.10 mph68%29.95 "HgN/A
5:55 AM59 °FClear.10 mph68%29.98 "HgN/A
5:25 AM59 °FCool.12 mph68%29.98 "HgN/A
Weather by CustomWeather, © 2016

See weather overviewHow to use our weather pages